Weather History for El Centro, CA

Change the Weather History Date:

Wednesday, February 6, 2013

  Actual Average Record
Temperature  
Mean Temperature 64 °F -  
Max Temperature 77 °F 68 °F 82 °F (2001)
Min Temperature 50 °F 44 °F 34 °F (2008)
Degree Days  
Heating Degree Days 2    
Growing Degree Days 14 (Base 50)    
Moisture  
Dew Point 38 °F    
Average Humidity 43    
Maximum Humidity 68    
Minimum Humidity 19    
Precipitation  
Precipitation 0.00 in - - ()
Sea Level Pressure  
Sea Level Pressure 29.97 in    
Wind  
Wind Speed 4 mph (West)    
Max Wind Speed 12 mph    
Max Gust Speed -    
Visibility 10 miles    
Events      
Averages and records for this station are not official NWS values.
T = Trace of Precipitation, MM = Missing Value Source: NWS Daily Summary

Daily Weather History Graph

Daily Weather History Graph

Search for Another Location

Airport:

Trip Planner

Search our weather history database for the weather conditions in past years. The results will help you decide how hot, cold, wet, or windy it might be!

Date:

Astronomy

Feb. 06, 2013 Rise Set
Actual Time 6:33 AM PST 5:20 PM PST
Civil Twilight 6:08 AM PST 5:45 PM PST
Nautical Twilight 5:38 AM PST 6:15 PM PST
Astronomical Twilight 5:09 AM PST 6:44 PM PST
Moon 3:15 AM PST (2/6) 1:49 PM PST (2/6)
Length of Visible Light 11h 37m
Length of Day
10h 46m
Waning Crescent, 16% of the Moon is Illuminated
Feb 6
Waning Crescent
Feb 9
New
Feb 17
First Quarter
Feb 25
Full
Mar 4
Last Quarter

Hourly Weather History & Observations

Time (PST) Temp. Dew Point Humidity Pressure Visibility Wind Dir Wind Speed Gust Speed Precip Events Conditions
12:56 AM 61.0 °F 42.1 °F 50% 29.93 in 10.0 mi West 3.5 mph - N/A   Clear
1:56 AM 61.0 °F 41.0 °F 48% 29.92 in 10.0 mi West 6.9 mph - N/A   Clear
2:56 AM 57.9 °F 39.9 °F 51% 29.90 in 10.0 mi South 4.6 mph - N/A   Clear
3:56 AM 57.0 °F 37.9 °F 49% 29.90 in 10.0 mi SW 8.1 mph - N/A   Clear
4:56 AM 54.0 °F 37.9 °F 55% 29.90 in 10.0 mi WSW 4.6 mph - N/A   Clear
5:56 AM 51.1 °F 37.9 °F 61% 29.91 in 10.0 mi South 8.1 mph - N/A   Clear
6:56 AM 50.0 °F 39.9 °F 68% 29.93 in 10.0 mi Calm Calm - N/A   Partly Cloudy
7:56 AM 57.0 °F 45.0 °F 64% 29.95 in 10.0 mi Calm Calm - N/A   Partly Cloudy
8:56 AM 64.0 °F 39.9 °F 41% 29.97 in 10.0 mi NNW 5.8 mph - N/A   Clear
9:56 AM 68.0 °F 48.0 °F 49% 29.99 in 10.0 mi NNW 11.5 mph - N/A   Clear
10:56 AM 70.0 °F 44.1 °F 39% 30.00 in 10.0 mi NNW 11.5 mph - N/A   Clear
11:56 AM 73.0 °F 39.9 °F 30% 29.99 in 10.0 mi North 6.9 mph - N/A   Clear
12:56 PM 75.0 °F 37.0 °F 25% 29.96 in 10.0 mi NNW 3.5 mph - N/A   Clear
1:56 PM 75.9 °F 37.9 °F 25% 29.96 in 10.0 mi Calm Calm - N/A   Clear
2:56 PM 77.0 °F 35.1 °F 22% 29.96 in 10.0 mi Calm Calm - N/A   Clear
3:56 PM 75.9 °F 30.9 °F 19% 29.96 in 10.0 mi Calm Calm - N/A   Clear
4:56 PM 75.0 °F 30.0 °F 19% 29.96 in 10.0 mi Calm Calm - N/A   Clear
5:56 PM 66.9 °F 35.1 °F 31% 29.98 in 10.0 mi SSE 5.8 mph - N/A   Clear
6:56 PM 64.9 °F 36.0 °F 34% 29.99 in 10.0 mi South 4.6 mph - N/A   Clear
7:56 PM 55.9 °F 35.1 °F 45% 30.01 in 10.0 mi Calm Calm - N/A   Clear
8:56 PM 55.9 °F 33.1 °F 42% 30.03 in 10.0 mi Calm Calm - N/A   Clear
9:56 PM 55.0 °F 36.0 °F 49% 30.04 in 10.0 mi WSW 4.6 mph - N/A   Clear
10:56 PM 50.0 °F 35.1 °F 57% 30.05 in 10.0 mi West 4.6 mph - N/A   Clear
11:56 PM 53.1 °F 35.1 °F 50% 30.06 in 10.0 mi NW 5.8 mph - N/A   Clear